[[{"header":{"parameterUnit":"m.s-1","parameterCategory":1,"la1":30.2991,"la2":30.254,"lo1":-89.0895,"lo2":-89.0444,"dy":0.0017,"dx":0.0017,"nx":28,"ny":28,"refTime":"2024-04-12T21:00:00:Z","depth":0,"parameterNumber":2,"parameterNumberName":"U-component_of_WINDS"},"data":[0,0,0,0,0,0,0,0,0,0,0,0,0,0,0,0,0,0,0,0,0,0,0,0,0,0,0,0,0,0,0,0,0,0,0,0,0,0,0,0,0,0,0,0,0,0,0,0,0,0,0,0,0,0,0,0,0,0,1.2167,1.2167,0,1.2189,1.2189,1.219,1.2179,1.2178,1.2178,1.2177,1.2199,1.22,1.2201,0,0,0,0,0,0,0,0,0,0,0,0,0,1.2116,1.2117,1.2167,1.2167,1.2168,1.2189,1.2189,1.219,1.2179,1.2178,1.2178,1.2177,1.2198,1.22,1.2201,0,0,0,0,0,0,0,0,0,0,0,0,0,1.2138,1.2117,1.2167,1.2165,1.2165,1.2189,1.2189,1.219,1.2179,1.2178,1.2178,1.2177,1.2198,1.22,1.2201,1.2228,0,0,1.2206,1.2207,0,0,0,0,0,0,0,0,1.2137,1.214,1.2165,1.2165,1.2165,1.218,1.2179,1.2203,1.2179,1.2174,1.2177,1.2176,1.2193,1.2195,1.2201,1.2229,1.223,1.2206,1.2207,1.2208,1.2208,0,0,0,0,0,0,0,1.2135,1.2139,1.2176,1.2165,1.2166,1.2163,1.2165,1.2183,1.2188,1.2174,1.2174,1.2176,1.2193,1.22,1.2202,1.223,1.2206,1.2208,1.2209,1.2209,1.2283,1.2284,0,0,0,0,0,0,1.2134,1.2137,1.2175,1.2176,1.2149,1.2164,1.2167,1.2176,1.2188,1.2189,1.2177,1.2176,1.2197,1.22,1.2202,1.2235,1.2208,1.221,1.221,1.2282,1.2283,1.2284,0,0,0,0,0,0,1.2133,1.2137,1.2174,1.2157,1.2161,1.2166,1.2177,1.2177,1.2184,1.219,1.2191,1.2183,1.2197,1.22,1.2222,1.2236,1.221,1.2212,1.2281,1.2282,1.2284,1.2301,0,0,0,0,0,0,1.2131,1.2137,1.2147,1.2157,1.2162,1.2194,1.2178,1.2178,1.2187,1.2185,1.2195,1.2196,1.2196,1.222,1.2224,1.2238,1.2213,1.228,1.2281,1.2283,1.2299,1.2303,1.2306,0,0,0,0,0,1.2129,1.215,1.2147,1.2152,1.2175,1.2194,1.2197,1.2197,1.2188,1.2198,1.2203,1.2196,1.2234,1.2222,1.2227,1.2241,1.2279,1.2281,1.2283,1.2298,1.2302,1.2306,0,0,0,0,0,0,1.2141,1.2152,1.2148,1.2174,1.2183,1.2193,1.2206,1.2202,1.2214,1.2212,1.2211,1.2213,1.2237,1.2241,1.2228,1.2269,1.2255,1.2258,1.2265,1.2269,1.2272,1.2271,1.2214,0,0,0,0,0,1.2147,1.2162,1.217,1.2191,1.2197,1.22,1.2209,1.2208,1.2218,1.2222,1.2227,1.2237,1.2251,1.226,1.2274,1.23,1.2303,1.2313,1.2316,1.2319,1.2321,1.2337,1.2342,1.2291,1.2291,1.2291,0,0,1.2158,1.2166,1.2175,1.2194,1.2201,1.2217,1.2204,1.222,1.2232,1.2224,1.2246,1.225,1.2261,1.2286,1.2297,1.229,1.2336,1.2322,1.2324,1.2325,1.234,1.2344,1.2349,1.2293,1.2293,1.2292,0,0,1.2187,1.2194,1.2213,1.2221,1.2233,1.2236,1.224,1.2251,1.2254,1.2276,1.227,1.2284,1.2308,1.2317,1.2324,1.2358,1.2353,1.2362,1.238,1.2395,1.2399,1.2402,1.2415,1.242,1.2365,1.2365,1.2365,0,1.2199,1.2223,1.2223,1.2241,1.225,1.2244,1.2264,1.2271,1.2287,1.2293,1.2285,1.2317,1.2323,1.2351,1.2359,1.2365,1.2371,1.2361,1.2398,1.2402,1.2405,1.2417,1.2422,1.2366,1.2366,1.2366,1.2366,0,1.2238,1.2255,1.2268,1.2285,1.2295,1.2313,1.2317,1.2327,1.2326,1.233,1.2353,1.2361,1.2376,1.2383,1.2381,1.241,1.2406,1.2398,1.2385,1.2411,1.2422,1.2427,1.2368,1.2367,1.2367,1.2367,0,0,1.2273,1.2291,1.2296,1.2304,1.2317,1.233,1.2349,1.2364,1.2374,1.2385,1.2401,1.2422,1.2416,1.2424,1.2424,1.2437,1.2465,1.2428,1.2429,1.2435,1.2498,1.2503,1.2509,1.2462,1.2462,1.2463,1.2497,0,1.2303,1.2337,1.2338,1.2368,1.2384,1.238,1.2396,1.2406,1.2411,1.2425,1.2429,1.2445,1.2435,1.244,1.2453,1.2459,1.2477,1.2456,1.2476,1.2477,1.2474,1.2514,1.252,1.2551,1.2501,1.2502,1.2503,0,1.2343,1.2356,1.2388,1.2401,1.2407,1.2422,1.2437,1.2451,1.2463,1.2465,1.2475,1.2473,1.2493,1.2479,1.2506,1.2492,1.25,1.2504,1.2506,1.2507,1.2491,1.2517,1.2561,1.2566,1.251,1.2509,1.2509,0,1.2366,1.2392,1.2415,1.2421,1.2436,1.2447,1.2454,1.2465,1.2475,1.2488,1.2495,1.251,1.2518,1.253,1.2533,1.2523,1.2561,1.2546,1.2563,1.2563,1.2571,1.257,1.2617,1.2576,1.2576,1.2576,1.2576,0,1.2399,1.2419,1.2426,1.244,1.2462,1.2464,1.2486,1.2492,1.2502,1.2517,1.2515,1.2529,1.2532,1.2547,1.2549,1.2571,1.2575,1.2578,1.2578,1.2578,1.2578,1.2583,1.2581,1.2578,1.2577,1.2577,1.2577,0,1.2428,1.2434,1.2458,1.2471,1.2475,1.2491,1.2502,1.2515,1.252,1.254,1.2544,1.2551,1.2569,1.2573,1.2594,1.2595,1.2622,1.262,1.2618,1.2618,1.2635,1.2633,1.2687,1.2694,1.2649,1.2649,1.2649,0,1.2449,1.2464,1.2479,1.249,1.2497,1.2514,1.2524,1.2527,1.2538,1.2554,1.2566,1.2584,1.2598,1.2626,1.2633,1.265,1.2648,1.2666,1.265,1.265,1.2649,1.2648,1.265,1.2669,1.2669,1.2669,1.267,0,1.2486,1.2488,1.2503,1.252,1.2533,1.2546,1.2559,1.2567,1.2572,1.2585,1.2603,1.2615,1.2637,1.2654,1.2671,1.2678,1.2675,1.2675,1.268,1.2679,1.2678,1.2679,1.2626,1.2673,1.2673,1.2673,1.2672,1.2672,1.2511,1.2525,1.2538,1.2556,1.2566,1.2578,1.2592,1.2599,1.2615,1.2633,1.2634,1.2655,1.2667,1.269,1.2698,1.2714,1.2708,1.2715,1.2717,1.2718,1.272,1.2676,1.2717,1.2717,1.2717,1.2717,1.2717,0,1.2548,1.2557,1.2573,1.2591,1.2605,1.2602,1.2616,1.2628,1.2647,1.2659,1.2673,1.2695,1.2713,1.2722,1.274,1.2751,1.275,1.2755,1.2754,1.2756,1.2724,1.2718,1.2756,1.2756,1.2756,1.2756,1.2756,1.2756,1.2569,1.2592,1.2596,1.2625,1.2634,1.2654,1.2663,1.2674,1.2684,1.2709,1.2724,1.273,1.2741,1.276,1.2776,1.2778,1.2785,1.2791,1.2793,1.2762,1.2758,1.2754,1.2749,1.2793,1.2793,1.2824,1.2824,1.2824]},{"header":{"parameterUnit":"m.s-1","parameterCategory":1,"la1":30.2991,"la2":30.254,"lo1":-89.0895,"lo2":-89.0444,"dy":0.0017,"dx":0.0017,"nx":28,"ny":28,"refTime":"2024-04-12T21:00:00:Z","depth":0,"parameterNumber":3,"parameterNumberName":"V-component_of_WINDS"},"data":[0,0,0,0,0,0,0,0,0,0,0,0,0,0,0,0,0,0,0,0,0,0,0,0,0,0,0,0,0,0,0,0,0,0,0,0,0,0,0,0,0,0,0,0,0,0,0,0,0,0,0,0,0,0,0,0,0,0,-2.0614,-2.0615,0,-2.0714,-2.0715,-2.0716,-2.0724,-2.0722,-2.0721,-2.072,-2.0822,-2.0825,-2.0829,0,0,0,0,0,0,0,0,0,0,0,0,0,-2.0428,-2.0432,-2.0614,-2.0615,-2.0616,-2.0714,-2.0715,-2.0716,-2.0724,-2.0722,-2.0721,-2.072,-2.082,-2.0825,-2.0829,0,0,0,0,0,0,0,0,0,0,0,0,0,-2.0517,-2.0433,-2.0613,-2.0632,-2.0634,-2.0713,-2.0715,-2.0717,-2.0724,-2.0722,-2.0721,-2.0719,-2.0819,-2.0824,-2.083,-2.0897,0,0,-2.0847,-2.0849,0,0,0,0,0,0,0,0,-2.0512,-2.0523,-2.0628,-2.0631,-2.0634,-2.0705,-2.0687,-2.0777,-2.0724,-2.069,-2.072,-2.0718,-2.0784,-2.0792,-2.0815,-2.0902,-2.0906,-2.0847,-2.0851,-2.0853,-2.0855,0,0,0,0,0,0,0,-2.0506,-2.0519,-2.0653,-2.0629,-2.0633,-2.0635,-2.0645,-2.0704,-2.0745,-2.0693,-2.0694,-2.0705,-2.0785,-2.0809,-2.0817,-2.0908,-2.0847,-2.0852,-2.0856,-2.0858,-2.1057,-2.1058,0,0,0,0,0,0,-2.0496,-2.0514,-2.065,-2.0656,-2.0567,-2.0639,-2.0651,-2.0683,-2.0744,-2.0752,-2.0707,-2.0705,-2.0801,-2.0811,-2.0821,-2.0904,-2.0853,-2.0858,-2.0862,-2.1055,-2.1057,-2.1059,0,0,0,0,0,0,-2.0492,-2.0508,-2.0646,-2.0585,-2.0603,-2.0644,-2.068,-2.0686,-2.071,-2.0755,-2.0762,-2.0724,-2.08,-2.0813,-2.0879,-2.0908,-2.0861,-2.0866,-2.1052,-2.1055,-2.1058,-2.1072,0,0,0,0,0,0,-2.0487,-2.0507,-2.0533,-2.0586,-2.0606,-2.0702,-2.0682,-2.0689,-2.072,-2.0719,-2.0773,-2.078,-2.0799,-2.087,-2.0884,-2.0915,-2.087,-2.105,-2.1054,-2.1057,-2.1069,-2.1075,-2.108,0,0,0,0,0,-2.048,-2.0532,-2.0534,-2.055,-2.064,-2.0704,-2.0716,-2.0737,-2.0722,-2.0749,-2.0778,-2.0778,-2.0902,-2.0877,-2.0893,-2.0925,-2.1048,-2.1053,-2.1057,-2.1066,-2.1073,-2.108,0,0,0,0,0,0,-2.048,-2.0539,-2.0542,-2.0613,-2.0654,-2.0705,-2.0739,-2.0744,-2.0789,-2.0786,-2.0811,-2.0823,-2.0888,-2.0913,-2.0884,-2.0994,-2.0974,-2.0981,-2.0975,-2.0983,-2.0988,-2.0981,-2.0875,0,0,0,0,0,-2.0489,-2.0536,-2.0585,-2.0643,-2.0663,-2.0698,-2.0726,-2.074,-2.0782,-2.08,-2.0833,-2.0874,-2.0923,-2.0954,-2.1001,-2.1072,-2.1085,-2.1103,-2.1108,-2.1113,-2.1119,-2.1159,-2.1168,-2.1073,-2.1073,-2.1073,0,0,-2.0506,-2.0545,-2.0573,-2.0644,-2.0677,-2.0726,-2.0712,-2.0764,-2.08,-2.0807,-2.0872,-2.0898,-2.0945,-2.1015,-2.1047,-2.1038,-2.1148,-2.1118,-2.1121,-2.1125,-2.1165,-2.1174,-2.1182,-2.1076,-2.1076,-2.1075,0,0,-2.0564,-2.0597,-2.0649,-2.0683,-2.0733,-2.0756,-2.0769,-2.082,-2.0838,-2.0903,-2.091,-2.0953,-2.1036,-2.107,-2.1098,-2.1169,-2.1172,-2.1184,-2.1212,-2.1252,-2.1259,-2.1266,-2.1292,-2.1301,-2.119,-2.119,-2.119,0,-2.0579,-2.0653,-2.0675,-2.0728,-2.0759,-2.0768,-2.0821,-2.0853,-2.0916,-2.0937,-2.0926,-2.1031,-2.1064,-2.1141,-2.1159,-2.1181,-2.1196,-2.1178,-2.1256,-2.1263,-2.127,-2.1295,-2.1305,-2.1191,-2.1191,-2.1191,-2.1191,0,-2.067,-2.0721,-2.0757,-2.0818,-2.0854,-2.0906,-2.0936,-2.097,-2.098,-2.1004,-2.1071,-2.111,-2.1166,-2.1185,-2.1195,-2.1265,-2.1258,-2.1251,-2.1231,-2.128,-2.1304,-2.1314,-2.1193,-2.1193,-2.1192,-2.1192,0,0,-2.0729,-2.0803,-2.0816,-2.0845,-2.0902,-2.0941,-2.0994,-2.1049,-2.1078,-2.1121,-2.1166,-2.1236,-2.1231,-2.1263,-2.1277,-2.1312,-2.1367,-2.1301,-2.1303,-2.1312,-2.1446,-2.1451,-2.1462,-2.1369,-2.137,-2.1372,-2.1442,0,-2.0793,-2.0888,-2.0911,-2.0992,-2.104,-2.105,-2.1096,-2.1136,-2.116,-2.1204,-2.123,-2.128,-2.1269,-2.1289,-2.1323,-2.1352,-2.1394,-2.1348,-2.1411,-2.1413,-2.1399,-2.1474,-2.1479,-2.1544,-2.1452,-2.1453,-2.1455,0,-2.088,-2.0927,-2.1013,-2.1064,-2.1085,-2.1127,-2.1179,-2.1221,-2.1267,-2.1282,-2.1318,-2.1329,-2.1385,-2.1362,-2.1439,-2.1408,-2.1435,-2.1453,-2.1456,-2.1463,-2.1437,-2.1483,-2.1565,-2.1574,-2.1469,-2.1468,-2.1467,0,-2.0916,-2.1,-2.1062,-2.1086,-2.1148,-2.1177,-2.1204,-2.1248,-2.128,-2.1326,-2.1347,-2.1398,-2.1427,-2.1466,-2.1491,-2.1472,-2.1567,-2.1546,-2.1581,-2.1581,-2.1601,-2.1599,-2.1688,-2.1618,-2.1617,-2.1617,-2.1617,0,-2.0985,-2.1038,-2.1079,-2.1118,-2.1177,-2.1203,-2.1261,-2.1288,-2.1327,-2.1371,-2.1383,-2.1424,-2.1454,-2.1499,-2.1519,-2.158,-2.1593,-2.1607,-2.1612,-2.1606,-2.1605,-2.1625,-2.1621,-2.162,-2.1619,-2.1619,-2.1618,0,-2.1035,-2.1065,-2.1134,-2.1187,-2.1202,-2.1243,-2.1288,-2.1326,-2.1351,-2.1407,-2.1421,-2.146,-2.1514,-2.1543,-2.161,-2.1623,-2.1693,-2.1694,-2.1677,-2.1679,-2.1714,-2.171,-2.1818,-2.1834,-2.1753,-2.1754,-2.1754,0,-2.1077,-2.1118,-2.1176,-2.1206,-2.1234,-2.1283,-2.1316,-2.1343,-2.1376,-2.1432,-2.1464,-2.1519,-2.1564,-2.165,-2.1684,-2.1736,-2.1739,-2.1774,-2.1747,-2.1741,-2.1741,-2.1738,-2.1743,-2.1778,-2.1779,-2.178,-2.178,0,-2.115,-2.1163,-2.121,-2.1263,-2.1302,-2.1345,-2.1387,-2.1411,-2.1445,-2.1482,-2.1538,-2.1573,-2.1643,-2.1697,-2.1752,-2.178,-2.1786,-2.1788,-2.1799,-2.1795,-2.1783,-2.1791,-2.1691,-2.1786,-2.1785,-2.1785,-2.1785,-2.1784,-2.1197,-2.1235,-2.1281,-2.1334,-2.1369,-2.1408,-2.1447,-2.1477,-2.1524,-2.1583,-2.1595,-2.1655,-2.17,-2.1774,-2.1803,-2.185,-2.1843,-2.1859,-2.1863,-2.1867,-2.1869,-2.1776,-2.186,-2.186,-2.186,-2.186,-2.186,0,-2.1271,-2.1302,-2.135,-2.1409,-2.145,-2.1453,-2.15,-2.1535,-2.1587,-2.1629,-2.1673,-2.1738,-2.1791,-2.183,-2.1884,-2.1914,-2.1918,-2.1928,-2.1926,-2.1932,-2.1871,-2.1857,-2.1923,-2.1923,-2.1923,-2.1923,-2.1923,-2.1923,-2.1314,-2.1377,-2.1396,-2.1477,-2.1507,-2.1566,-2.1593,-2.1629,-2.1663,-2.1735,-2.1779,-2.1804,-2.1845,-2.1903,-2.1952,-2.1962,-2.1981,-2.1991,-2.2001,-2.1943,-2.1936,-2.193,-2.1916,-2.1995,-2.1995,-2.2058,-2.2059,-2.2059]}]]